Previsão horária em Jumurtov

Hoje, 14 Junho, Segunda-feira

Tempo Temperatura Precipitação Vento Pressão Humidade
00:00 +33°C° 0 mm 8 m/s 748 mmHg 11%
01:00 +32°C° 0 mm 9 m/s 748 mmHg 11%
02:00 +31°C° 0 mm 8 m/s 749 mmHg 11%
03:00 +29°C° 0 mm 8 m/s 749 mmHg 11%
04:00 +28°C° 0 mm 8 m/s 749 mmHg 12%
05:00 +29°C° 0 mm 8 m/s 749 mmHg 12%
06:00 +29°C° 0 mm 8 m/s 750 mmHg 12%
07:00 +31°C° 0 mm 8 m/s 750 mmHg 11%
08:00 +32°C° 0 mm 8 m/s 751 mmHg 11%
09:00 +33°C° 0 mm 7 m/s 751 mmHg 10%
10:00 +35°C° 0 mm 7 m/s 751 mmHg 9%
11:00 +35°C° 0 mm 7 m/s 751 mmHg 8%
12:00 +36°C° 0 mm 6 m/s 751 mmHg 8%
13:00 +38°C° 0 mm 6 m/s 750 mmHg 7%
14:00 +38°C° 0 mm 6 m/s 750 mmHg 7%
15:00 +38°C° 0 mm 7 m/s 750 mmHg 7%
16:00 +38°C° 0 mm 7 m/s 750 mmHg 6%
17:00 +38°C° 0 mm 7 m/s 750 mmHg 7%
18:00 +36°C° 0 mm 7 m/s 750 mmHg 8%
19:00 +35°C° 0 mm 6 m/s 750 mmHg 9%
20:00 +34°C° 0 mm 6 m/s 750 mmHg 10%
21:00 +33°C° 0 mm 6 m/s 750 mmHg 12%
22:00 +32°C° 0 mm 6 m/s 751 mmHg 13%
23:00 +30°C° 0 mm 6 m/s 750 mmHg 13%

Amanhã, 15 Junho, Terça-feira

Tempo Temperatura Precipitação Vento Pressão Humidade
00:00 +29°C° 0 mm 5 m/s 750 mmHg 14%
01:00 +28°C° 0 mm 4 m/s 750 mmHg 14%
02:00 +27°C° 0 mm 4 m/s 750 mmHg 14%
03:00 +27°C° 0 mm 4 m/s 750 mmHg 15%
04:00 +26°C° 0 mm 4 m/s 750 mmHg 15%
05:00 +27°C° 0 mm 4 m/s 750 mmHg 14%
06:00 +28°C° 0 mm 5 m/s 751 mmHg 13%
07:00 +30°C° 0 mm 5 m/s 751 mmHg 12%
08:00 +32°C° 0 mm 5 m/s 751 mmHg 11%
09:00 +33°C° 0 mm 5 m/s 751 mmHg 11%
10:00 +35°C° 0 mm 6 m/s 751 mmHg 10%
11:00 +36°C° 0 mm 6 m/s 750 mmHg 10%
12:00 +36°C° 0 mm 6 m/s 750 mmHg 10%
13:00 +38°C° 0 mm 6 m/s 750 mmHg 9%
14:00 +39°C° 0 mm 6 m/s 749 mmHg 9%
15:00 +39°C° 0 mm 6 m/s 749 mmHg 8%
16:00 +39°C° 0 mm 6 m/s 749 mmHg 8%
17:00 +38°C° 0 mm 6 m/s 748 mmHg 8%
18:00 +37°C° 0 mm 5 m/s 748 mmHg 9%
19:00 +36°C° 0 mm 5 m/s 748 mmHg 9%
20:00 +35°C° 0 mm 5 m/s 748 mmHg 11%
21:00 +34°C° 0 mm 5 m/s 749 mmHg 13%
22:00 +32°C° 0 mm 5 m/s 749 mmHg 15%
23:00 +32°C° 0 mm 5 m/s 749 mmHg 17%

Depois de amanhã, 16 Junho, Quarta-feira

Tempo Temperatura Precipitação Vento Pressão Humidade
00:00 +30°C° 0 mm 5 m/s 749 mmHg 18%
01:00 +29°C° 0 mm 5 m/s 749 mmHg 19%
02:00 +29°C° 0 mm 4 m/s 749 mmHg 19%
03:00 +28°C° 0 mm 4 m/s 749 mmHg 20%
04:00 +28°C° 0 mm 4 m/s 749 mmHg 21%
05:00 +29°C° 0 mm 4 m/s 749 mmHg 20%
06:00 +32°C° 0 mm 5 m/s 750 mmHg 19%
07:00 +33°C° 0 mm 5 m/s 750 mmHg 18%
08:00 +34°C° 0 mm 5 m/s 750 mmHg 16%
09:00 +36°C° 0 mm 5 m/s 750 mmHg 15%
10:00 +37°C° 0 mm 5 m/s 750 mmHg 14%
11:00 +39°C° 0 mm 5 m/s 750 mmHg 13%
12:00 +40°C° 0 mm 4 m/s 749 mmHg 12%
13:00 +40°C° 0 mm 4 m/s 749 mmHg 11%
14:00 +40°C° 0 mm 5 m/s 749 mmHg 11%
15:00 +41°C° 0 mm 6 m/s 749 mmHg 10%
16:00 +41°C° 0 mm 6 m/s 749 mmHg 10%
17:00 +40°C° 0 mm 6 m/s 749 mmHg 10%
18:00 +39°C° 0 mm 6 m/s 749 mmHg 11%
19:00 +39°C° 0 mm 6 m/s 749 mmHg 12%
20:00 +36°C° 0 mm 7 m/s 749 mmHg 15%
21:00 +35°C° 0 mm 8 m/s 749 mmHg 18%
22:00 +33°C° 0 mm 9 m/s 750 mmHg 20%
23:00 +32°C° 0 mm 7 m/s 749 mmHg 21%

17 Junho, Quinta-feira

Tempo Temperatura Precipitação Vento Pressão Humidade
00:00 +32°C° 0 mm 6 m/s 749 mmHg 22%
01:00 +30°C° 0 mm 5 m/s 749 mmHg 23%
02:00 +29°C° 0 mm 5 m/s 749 mmHg 24%
03:00 +29°C° 0 mm 4 m/s 749 mmHg 25%
04:00 +28°C° 0 mm 4 m/s 749 mmHg 25%
05:00 +30°C° 0 mm 3 m/s 749 mmHg 23%
06:00 +31°C° 0 mm 3 m/s 749 mmHg 21%
07:00 +34°C° 0 mm 3 m/s 749 mmHg 19%
08:00 +35°C° 0 mm 3 m/s 749 mmHg 16%
09:00 +37°C° 0 mm 3 m/s 749 mmHg 14%
10:00 +38°C° 0 mm 3 m/s 749 mmHg 12%
11:00 +39°C° 0 mm 3 m/s 749 mmHg 11%
12:00 +39°C° 0 mm 3 m/s 748 mmHg 10%
13:00 +40°C° 0 mm 2 m/s 748 mmHg 9%
14:00 +40°C° 0 mm 3 m/s 748 mmHg 9%
15:00 +40°C° 0 mm 3 m/s 747 mmHg 9%
16:00 +42°C° 0 mm 4 m/s 747 mmHg 8%
17:00 +41°C° 0 mm 4 m/s 747 mmHg 9%
18:00 +40°C° 0 mm 4 m/s 747 mmHg 9%
19:00 +40°C° 0 mm 4 m/s 747 mmHg 10%
20:00 +37°C° 0 mm 5 m/s 747 mmHg 12%
21:00 +36°C° 0 mm 6 m/s 747 mmHg 14%
22:00 +34°C° 0 mm 7 m/s 748 mmHg 16%
23:00 +34°C° 0 mm 6 m/s 748 mmHg 17%

18 Junho, Sexta-feira

Tempo Temperatura Precipitação Vento Pressão Humidade
00:00 +33°C° 0 mm 5 m/s 747 mmHg 18%
01:00 +32°C° 0 mm 5 m/s 747 mmHg 20%
02:00 +30°C° 0 mm 4 m/s 747 mmHg 20%
03:00 +30°C° 0 mm 3 m/s 747 mmHg 21%
04:00 +29°C° 0 mm 3 m/s 747 mmHg 22%
05:00 +31°C° 0 mm 2 m/s 747 mmHg 20%
06:00 +32°C° 0 mm 1 m/s 747 mmHg 18%
07:00 +32°C° 0 mm 0 m/s 748 mmHg 16%
08:00 +35°C° 0 mm 1 m/s 748 mmHg 15%
09:00 +38°C° 0 mm 2 m/s 748 mmHg 13%
10:00 +39°C° 0 mm 2 m/s 748 mmHg 11%
11:00 +40°C° 0 mm 3 m/s 747 mmHg 10%
12:00 +42°C° 0 mm 3 m/s 747 mmHg 10%
13:00 +43°C° 0 mm 4 m/s 747 mmHg 9%
14:00 +43°C° 0 mm 4 m/s 747 mmHg 9%
15:00 +44°C° 0 mm 4 m/s 746 mmHg 9%
16:00 +44°C° 0 mm 4 m/s 746 mmHg 9%
17:00 +44°C° 0 mm 6 m/s 746 mmHg 11%
18:00 +41°C° 0 mm 7 m/s 746 mmHg 13%
19:00 +40°C° 0 mm 8 m/s 747 mmHg 15%
20:00 +39°C° 0 mm 7 m/s 747 mmHg 18%
21:00 +36°C° 0 mm 7 m/s 747 mmHg 20%
22:00 +35°C° 0 mm 6 m/s 748 mmHg 23%
23:00 +34°C° 0 mm 6 m/s 748 mmHg 25%

19 Junho, Sábado

Tempo Temperatura Precipitação Vento Pressão Humidade
00:00 +33°C° 0 mm 5 m/s 748 mmHg 27%
01:00 +33°C° 0 mm 5 m/s 748 mmHg 30%
02:00 +30°C° 0 mm 5 m/s 748 mmHg 33%
03:00 +29°C° 0 mm 5 m/s 749 mmHg 36%
04:00 +28°C° 0 mm 5 m/s 750 mmHg 40%
05:00 +28°C° 0 mm 7 m/s 750 mmHg 41%
06:00 +28°C° 0 mm 8 m/s 751 mmHg 42%
07:00 +27°C° 0 mm 9 m/s 751 mmHg 43%
08:00 +28°C° 0 mm 9 m/s 752 mmHg 36%
09:00 +29°C° 0 mm 9 m/s 752 mmHg 29%
10:00 +29°C° 0 mm 10 m/s 753 mmHg 22%
11:00 +31°C° 0 mm 10 m/s 753 mmHg 19%
12:00 +31°C° 0 mm 9 m/s 753 mmHg 16%
13:00 +32°C° 0 mm 9 m/s 753 mmHg 13%
14:00 +31°C° 0 mm 9 m/s 753 mmHg 13%
15:00 +31°C° 0 mm 9 m/s 754 mmHg 13%
16:00 +31°C° 0 mm 9 m/s 754 mmHg 13%
17:00 +29°C° 0 mm 9 m/s 754 mmHg 13%
18:00 +28°C° 0 mm 8 m/s 754 mmHg 14%
19:00 +28°C° 0 mm 8 m/s 754 mmHg 14%
20:00 +26°C° 0 mm 8 m/s 755 mmHg 18%
21:00 +24°C° 0 mm 8 m/s 755 mmHg 21%
22:00 +22°C° 0 mm 7 m/s 756 mmHg 25%
23:00 +22°C° 0 mm 7 m/s 756 mmHg 26%
Mostrar mais

Necessitamos do seu Consentimento

A Meteoprog e os seus Fornecedores de Serviços podem armazenar e aceder a dados pessoais como cookies, identificadores do dispositivo ou outras tecnologias semelhantes existentes no seu dispositivo e processar estes dados para personalizar conteúdos e anúncios, assim como funcionalidades nas redes sociais e análise de tráfego.

  • Armazenar e/ou aceder a informações no seu dispositivo

    Os cookies, identificadores do dispositivo ou outras informações podem ser armazenados ou acedidos no seu dispositivo, para os fins acima indicados.

  • Anúncios e conteúdos personalizados, medição de anúncios e conteúdos, dados sobre o público-alvo e desenvolvimento de produtos

    Os anúncios e os conteúdos podem ser personalizados com base num perfil. Podem ser adicionados dados adicionais para uma maior personalização dos anúncios e dos conteúdos. A eficácia dos anúncios e dos conteúdos pode ser medida. Podem ser obtidas informações sobre o público que visualizou os anúncios e os conteúdos. Estes dados podem ser usados para desenvolver ou melhorar sistemas, softwares ou a experiência do utilizador.

Ao clicar em "Eu concordo”, permitirá o uso de cookies, identificadores do dispositivo e web beacons mencionados ou outras tecnologias semelhantes. As configurações do navegador do seu dispositivo podem ser alteradas.

Para certos fins, podem ser invocados interesses legítimos ao invés de consentimento. Pode ler mais informação sobre este assunto na nossa Política de Privacidade e Cookies.